Regional Weather Roundup
Issued by NWS

Home | Current Version | Previous Version | Graphics & Text | Print | Product List | Glossary Off
Versions: 1 2 3 4 5 6 7 8 9 10 11 12 13 14 15 16 17 18 19 20 21 22 23 24 25 26 27 28 29 30 31 32 33 34 35 36 37 38 39 40 41 42 43 44 45 46 47 48

000
ASUS43 KDMX 242207
RWRIA

WEATHER ROUNDUP FOR IOWA
NATIONAL WEATHER SERVICE DES MOINES IA
500 PM CDT THU JUL 24 2014

NOTE: "FAIR" INDICATES FEW OR NO CLOUDS BELOW 12,000 FEET WITH NO
SIGNIFICANT WEATHER AND/OR OBSTRUCTIONS TO VISIBILITY.

* - THESE STATIONS ARE NOT NWS STATIONS...THUS NOT UNDER NWS
QUALITY CONTROL.  THEY ALSO DO NOT REPORT WEATHER SUCH
AS PRECIPITATION OR FOG.

IAZ001>003-012>014-020>022-031>034-043>046-242300-
   NORTHWEST IOWA

CITY           SKY/WX    TMP DP  RH WIND       PRES   REMARKS
CARROLL *      MOSUNNY   70  63  78 NE7       30.08R
CHEROKEE *     CLOUDY    72  64  78 SE9       30.04F
DENISON *      SUNNY     75  63  64 VRB7G17   30.00R
LE MARS *      MOSUNNY   77  64  65 E10G18    30.02R
ORANGE CITY *  PTSUNNY   72  61  68 E16G22    30.08R
SHELDON *      RAIN      63  59  88 E13G22    30.08R
SIOUX CITY     PTSUNNY   77  64  64 SE15G23   29.95R
SPENCER        TSTM      63  60  90 NE5       30.13R FOG
STORM LAKE *   SUNNY     70  64  83 SE10      30.05F
$$

IAZ055>058-069>071-079>083-090>094-242300-
   SOUTHWEST IOWA

CITY           SKY/WX    TMP DP  RH WIND       PRES   REMARKS
ATLANTIC *     SUNNY     77  61  57 S15G21    30.00F
AUDUBON *      SUNNY     75  66  73 S10G17    30.03R
CLARINDA *     SUNNY     79  70  73 SE13      30.04F HX  81
COUNCIL BLFS * SUNNY     81  64  57 SE18G25   29.97F HX  82
CRESTON *      SUNNY     75  63  64 SE12G20   30.02F
HARLAN  *      SUNNY     77  63  61 S16G25    30.02F
LAMONI         CLOUDY    75  58  55 SE6       30.08S
RED OAK *      SUNNY     81  63  54 S17G25    30.00F HX  82
SHENANDOAH *   SUNNY     81  64  57 SE12G20   30.02F HX  82
$$

IAZ047>049-059>061-072>074-084-242300-
   CENTRAL IOWA

CITY           SKY/WX    TMP DP  RH WIND       PRES   REMARKS
AMES           CLOUDY    71  61  70 N6        30.05F
ANKENY *       SUNNY     73  61  64 S8G20     30.00F
CHARITON *     SUNNY     75  61  60 SE12      30.04F
DES MOINES     CLOUDY    75  61  61 VRB7      30.02F
GRINNELL*      CLOUDY    75  61  60 S6        30.07F
KNOXVILLE *    SUNNY     75  61  60 S10       30.03F
MARSHALLTOWN   CLOUDY    75  61  61 S6        30.06F
PELLA *        CLOUDY    75  63  64 S7        30.07F
PERRY *          N/A     70  64  83 S8        30.02F
$$

IAZ004>006-015-016-023>025-035-036-242300-
   NORTH CENTRAL IOWA

CITY           SKY/WX    TMP DP  RH WIND       PRES   REMARKS
ALGONA *       DRIZZLE   68  64  88 NW13G21   30.17R
CLARION *      LGT RAIN  70  63  78 S6        30.09R
ESTHERVILLE    RAIN      65  63  93 NW5       30.14R FOG
FORT DODGE *   CLOUDY    66  61  82 SW6       30.09F
MASON CITY     CLOUDY    74  60  61 SW8       30.09S
FOREST CITY *  LGT RAIN  72  61  68 CALM      30.09F
IOWA FALLS *     N/A     73  59  60 SE5       30.07F
$$

IAZ007>011-017>019-026>030-037>042-050>054-066-242300-
   NORTHEAST IOWA

CITY           SKY/WX    TMP DP  RH WIND       PRES   REMARKS
CEDAR RAPIDS   MOSUNNY   76  59  55 SW8       30.08F
CHARLES CITY * SUNNY     77  59  53 SW8       30.08S
CLINTON *      MOSUNNY   77  55  47 CALM      30.12F
DECORAH *      SUNNY     75  59  57 S5        30.06F
DUBUQUE        PTSUNNY   75  56  51 S5        30.10F
MONTICELLO *   MOSUNNY   77  59  53 S8        30.09S
OELWEIN *      SUNNY     75  59  57 S9        30.08F
WATERLOO       PTSUNNY   77  58  51 S12       30.07S
$$

IAZ064-065-067-068-078-242300-
   EAST CENTRAL IOWA

CITY           SKY/WX    TMP DP  RH WIND       PRES   REMARKS
DAVENPORT      MOSUNNY   78  53  41 E3        30.09S
IOWA CITY      PTSUNNY   77  60  55 SE8       30.10S
MT. PLEASANT * MOSUNNY   79  54  41 SW3       30.10S
MUSCATINE *    PTSUNNY   79  55  44 CALM      30.09F
QUAD CITIES    MOSUNNY   76  55  48 CALM      30.08S
$$

IAZ062-063-075>077-085>089-095>099-242300-
   SOUTHEAST IOWA

CITY           SKY/WX    TMP DP  RH WIND       PRES   REMARKS
BURLINGTON     PTSUNNY   77  58  51 S5        30.09R
FAIRFIELD *    MOSUNNY   77  59  53 S3        30.11S
FORT MADISON * SUNNY     77  61  57 CALM      30.11R
KEOKUK *       MOSUNNY   77  57  50 SE3       30.09R
OSKALOOSA *      N/A     75  61  60 S6        30.10S
CENTERVILLE *  SUNNY     77  61  57 CALM      30.13R
OTTUMWA        CLOUDY    75  60  59 S7        30.10R
WASHINGTON *   SUNNY     77  57  50 VRB3      30.10S
$$

ABBREVIATIONS USED IN REMARKS
   TC - TEMPERATURES IN CELSIUS
  WCI - WIND CHILL INDEX
   HX - HEAT INDEX
  VSB - VISIBILITY
$$



USA.gov is the U.S. government's official web portal to all federal, state and local government web resources and services.